Flag for Argentina

Past Weather in Tandil, Buenos Aires, Argentina — Yesterday and Last 2 Weeks

Now
42 °F

Passing clouds.


Feels Like: 35 °F
Forecast: N/A
Wind: 15 mph from West

Location: Tandil Aerodrome

Current Time: Jul 12, 2020 at 8:32:43 pm

Latest Report: Jul 12, 2020 at 7:00 pm


Visibility: 9 mi

Pressure: 29.90 "Hg

Humidity: 52%

Dew Point: 26 °F

Location of TandilLocation

Past Weather in Tandil — Graph

°F

Tandil Temperature Yesterday

Maximum temperature yesterday: 55 °F (at 4:00 pm)
Minimum temperature yesterday: 29 °F (at 4:00 am)
Average temperature yesterday: 41 °F

High & Low Weather Summary for the Past Weeks

 TemperatureHumidityPressure
High55 °F (Jul 11, 4:00 pm)100% (Jul 2, 11:00 pm)30.35 "Hg (Jul 2, 11:00 pm)
Low28 °F (Jun 28, 4:00 am)27% (Jul 11, 4:00 pm)29.69 "Hg (Jul 10, 3:00 pm)
Average42 °F82%30.04 "Hg
* Reported Jun 27 6:00 pm — Jul 12 6:00 pm, Tandil. Weather by CustomWeather, © 2020

Note: Actual official high and low records may vary slightly from our data, if they occured in-between our weather recording intervals... More about our weather records

Tandil Weather History for the Previous 24 Hours

Scroll right to see more
 ConditionsComfort  
Time TempWeatherWind HumidityBarometerVisibility
6:00 pm
Sun, Jul 12
44 °FPassing clouds.15 mph49%29.88 "Hg12 mi
5:00 pm46 °FScattered clouds.17 mph44%29.86 "Hg12 mi
4:00 pm48 °FPassing clouds.23 mph37%29.84 "Hg12 mi
3:00 pm50 °FScattered clouds.21 mph34%29.83 "Hg12 mi
2:00 pm48 °FScattered clouds.17 mph39%29.83 "Hg12 mi
1:00 pm46 °FPartly sunny.17 mph39%29.85 "Hg12 mi
12:00 pm45 °FPartly sunny.14 mph40%29.85 "Hg12 mi
11:00 am44 °FPartly sunny.15 mph40%29.87 "Hg12 mi
10:00 am40 °FPartly sunny.9 mph59%29.86 "Hg12 mi
9:00 am37 °FPartly sunny.7 mph63%29.85 "Hg12 mi
8:00 am36 °FPassing clouds.5 mph68%29.85 "Hg12 mi
7:00 am38 °FPassing clouds.6 mph67%29.82 "Hg9 mi
5:00 am39 °FOvercast.6 mph63%29.81 "Hg9 mi
4:00 am42 °FOvercast.7 mph52%29.83 "Hg9 mi
3:00 am42 °FOvercast.12 mph49%29.82 "Hg9 mi
2:00 am44 °FOvercast.13 mph48%29.82 "Hg9 mi
1:00 am44 °FOvercast.8 mph50%29.80 "Hg9 mi
12:00 am45 °FOvercast.10 mph57%29.80 "Hg9 mi
11:00 pm
Sat, Jul 11
44 °FOvercast.9 mph56%29.80 "Hg9 mi
10:00 pm42 °FOvercast.12 mph70%29.82 "Hg9 mi
9:00 pm45 °FOvercast.18 mph66%29.83 "Hg9 mi
8:00 pm46 °FOvercast.9 mph67%29.80 "Hg9 mi
Weather by CustomWeather, © 2020

See weather overview